Location: Maccacari
(45.1333°N, 11.1333°E)
Time: 03:26:40
(UTC+00:00)

Altair - Pass Details

Date: 02 February 2021
Orbit: 1501 x 1682 km, 47.2° (Epoch: 01 March)

Event Time Altitude Azimuth Distance (km) Brightness Sun altitude
Rises 09:33:10 0° 292° (WNW) 4,938 9.7 22.8°
Reaches altitude 10° 09:37:03 10° 281° (W) 3,948 9.4 23.1°
Maximum altitude 09:44:44 25° 231° (SW) 2,893 9.3 23.8°
Drops below altitude 10° 09:52:20 10° 181° (S) 3,889 10.9 24.4°
Sets 09:56:09 0° 169° (SSE) 4,849 11.4 24.7°
